• In Russia
  • List of Countries
  • For 7 days
  • Water Temperature
  • Weather Map
  • Weather Widgets
  • user-avatar
    Login

    Hourly Weather Kaprun

    Today, 20 February, Thursday

    Time Temperature Precipitation Wind Pressure Humidity
    00:00 -13°C° 0.1 mm 2 mps 595 mmHg 90%
    01:00 -13°C° 0 mm 2 mps 595 mmHg 91%
    02:00 -13°C° 0 mm 2 mps 595 mmHg 88%
    03:00 -11°C° 0 mm 1 mps 595 mmHg 86%
    04:00 -11°C° 0 mm 1 mps 595 mmHg 84%
    05:00 -10°C° 0 mm 1 mps 595 mmHg 81%
    06:00 -10°C° 0 mm 1 mps 595 mmHg 77%
    07:00 -12°C° 0 mm 2 mps 595 mmHg 76%
    08:00 -8°C° 0 mm 1 mps 596 mmHg 73%
    09:00 -6°C° 0 mm 1 mps 597 mmHg 70%
    10:00 -3°C° 0 mm 1 mps 598 mmHg 66%
    11:00 -2°C° 0 mm 1 mps 598 mmHg 67%
    12:00 -2°C° 0 mm 1 mps 598 mmHg 68%
    13:00 -2°C° 0 mm 0 mps 598 mmHg 69%
    14:00 -2°C° 0 mm 0 mps 597 mmHg 71%
    15:00 -1°C° 0 mm 1 mps 597 mmHg 74%
    16:00 -1°C° 0 mm 1 mps 597 mmHg 77%
    17:00 -2°C° 0 mm 1 mps 596 mmHg 78%
    18:00 -3°C° 0 mm 1 mps 595 mmHg 79%
    19:00 -7°C° 0 mm 2 mps 595 mmHg 80%
    20:00 -7°C° 0 mm 2 mps 595 mmHg 73%
    21:00 -7°C° 0 mm 2 mps 595 mmHg 66%
    22:00 -6°C° 0 mm 1 mps 595 mmHg 59%
    23:00 -6°C° 0 mm 1 mps 595 mmHg 57%

    Tomorrow, 21 February, Friday

    Time Temperature Precipitation Wind Pressure Humidity
    00:00 -6°C° 0 mm 1 mps 595 mmHg 55%
    01:00 -6°C° 0 mm 1 mps 595 mmHg 53%
    02:00 -6°C° 0 mm 1 mps 595 mmHg 57%
    03:00 -7°C° 0 mm 2 mps 595 mmHg 62%
    04:00 -8°C° 0 mm 2 mps 595 mmHg 66%
    05:00 -8°C° 0.2 mm 2 mps 596 mmHg 73%
    06:00 -8°C° 0.2 mm 2 mps 596 mmHg 80%
    07:00 -8°C° 0.2 mm 2 mps 597 mmHg 86%
    14:00 -4°C° 0 mm 2 mps 600 mmHg 90%
    15:00 -5°C° 0 mm 2 mps 599 mmHg 81%
    16:00 -5°C° 0 mm 2 mps 599 mmHg 81%
    17:00 -6°C° 0 mm 2 mps 599 mmHg 83%
    18:00 -7°C° 0 mm 2 mps 599 mmHg 84%
    19:00 -8°C° 0 mm 2 mps 599 mmHg 86%
    20:00 -7°C° 0 mm 1 mps 599 mmHg 80%
    21:00 -7°C° 0 mm 1 mps 599 mmHg 73%
    22:00 -6°C° 0 mm 1 mps 599 mmHg 67%
    23:00 -6°C° 0 mm 1 mps 600 mmHg 65%

    Day after tomorrow, 22 February, Saturday

    Time Temperature Precipitation Wind Pressure Humidity
    00:00 -6°C° 0 mm 1 mps 600 mmHg 63%
    01:00 -4°C° 0 mm 1 mps 600 mmHg 61%
    02:00 -6°C° 0 mm 2 mps 600 mmHg 57%
    03:00 -6°C° 0 mm 2 mps 600 mmHg 54%
    04:00 -6°C° 0 mm 2 mps 600 mmHg 51%
    05:00 -6°C° 0 mm 2 mps 600 mmHg 53%
    06:00 -5°C° 0 mm 2 mps 600 mmHg 55%
    07:00 -5°C° 0 mm 2 mps 601 mmHg 57%
    08:00 -1°C° 0 mm 1 mps 601 mmHg 62%
    09:00 +1°C° 0 mm 1 mps 602 mmHg 67%
    10:00 +2°C° 0 mm 1 mps 603 mmHg 72%
    11:00 +3°C° 0 mm 1 mps 603 mmHg 72%
    12:00 +4°C° 0 mm 1 mps 603 mmHg 72%
    13:00 +5°C° 0 mm 1 mps 603 mmHg 72%
    14:00 +5°C° 0 mm 1 mps 603 mmHg 73%
    15:00 +5°C° 0 mm 1 mps 602 mmHg 74%
    16:00 +4°C° 0 mm 1 mps 602 mmHg 76%
    17:00 +3°C° 0 mm 1 mps 601 mmHg 69%
    18:00 +2°C° 0 mm 1 mps 601 mmHg 63%
    19:00 -1°C° 0 mm 2 mps 601 mmHg 57%
    20:00 -2°C° 0 mm 2 mps 601 mmHg 55%
    21:00 0°C° 0 mm 1 mps 601 mmHg 52%
    22:00 0°C° 0 mm 1 mps 601 mmHg 50%
    23:00 0°C° 0 mm 1 mps 601 mmHg 51%

    23 February, Sunday

    Time Temperature Precipitation Wind Pressure Humidity
    00:00 0°C° 0 mm 1 mps 601 mmHg 52%
    01:00 0°C° 0 mm 1 mps 601 mmHg 52%
    02:00 0°C° 0 mm 1 mps 601 mmHg 55%
    03:00 -3°C° 0 mm 2 mps 600 mmHg 57%
    04:00 -3°C° 0 mm 2 mps 600 mmHg 60%
    05:00 -3°C° 0 mm 2 mps 600 mmHg 62%
    06:00 -3°C° 0 mm 2 mps 600 mmHg 64%
    07:00 -1°C° 0 mm 1 mps 600 mmHg 66%
    08:00 0°C° 0 mm 1 mps 601 mmHg 69%
    09:00 +1°C° 0 mm 1 mps 601 mmHg 73%
    10:00 +2°C° 0 mm 1 mps 601 mmHg 76%
    11:00 +2°C° 0 mm 1 mps 601 mmHg 79%
    12:00 +3°C° 0 mm 1 mps 601 mmHg 81%
    13:00 +3°C° 0 mm 1 mps 601 mmHg 83%
    14:00 +3°C° 0.1 mm 1 mps 600 mmHg 86%
    15:00 +2°C° 0.1 mm 2 mps 600 mmHg 89%
    16:00 +2°C° 0.1 mm 2 mps 599 mmHg 92%
    17:00 +2°C° 0 mm 2 mps 599 mmHg 91%
    18:00 +1°C° 0 mm 2 mps 600 mmHg 90%
    19:00 +1°C° 0 mm 2 mps 600 mmHg 89%
    20:00 +1°C° 0 mm 2 mps 600 mmHg 89%
    21:00 +1°C° 0 mm 2 mps 599 mmHg 88%
    22:00 +1°C° 0 mm 2 mps 599 mmHg 88%
    23:00 +1°C° 0 mm 2 mps 599 mmHg 88%

    24 February, Monday

    Time Temperature Precipitation Wind Pressure Humidity
    00:00 +1°C° 0 mm 2 mps 599 mmHg 88%
    01:00 +1°C° 0 mm 2 mps 599 mmHg 89%
    02:00 +1°C° 0.1 mm 2 mps 599 mmHg 89%
    03:00 +1°C° 0.1 mm 2 mps 598 mmHg 90%
    04:00 -1°C° 0.1 mm 2 mps 598 mmHg 91%
    05:00 -1°C° 0.1 mm 2 mps 598 mmHg 91%
    06:00 -1°C° 0.1 mm 2 mps 598 mmHg 90%
    07:00 -1°C° 0.1 mm 2 mps 598 mmHg 90%
    08:00 +1°C° 0.2 mm 2 mps 599 mmHg 90%
    09:00 +1°C° 0.2 mm 2 mps 599 mmHg 89%
    10:00 +2°C° 0.2 mm 2 mps 600 mmHg 89%
    11:00 +3°C° 0.1 mm 1 mps 599 mmHg 88%
    12:00 +4°C° 0.1 mm 1 mps 599 mmHg 87%
    13:00 +4°C° 0.1 mm 1 mps 599 mmHg 86%
    14:00 +4°C° 0 mm 1 mps 599 mmHg 86%
    15:00 +4°C° 0 mm 1 mps 599 mmHg 86%
    16:00 +4°C° 0 mm 1 mps 598 mmHg 86%
    17:00 +3°C° 0 mm 1 mps 598 mmHg 83%
    18:00 +2°C° 0 mm 1 mps 597 mmHg 80%
    19:00 +1°C° 0 mm 1 mps 597 mmHg 77%
    20:00 +1°C° 0 mm 1 mps 597 mmHg 75%
    21:00 +1°C° 0 mm 1 mps 597 mmHg 73%
    22:00 +1°C° 0 mm 1 mps 596 mmHg 72%
    23:00 +1°C° 0 mm 1 mps 596 mmHg 72%

    25 February, Tuesday

    Time Temperature Precipitation Wind Pressure Humidity
    00:00 0°C° 0 mm 1 mps 596 mmHg 71%
    01:00 0°C° 0 mm 1 mps 595 mmHg 71%
    02:00 0°C° 0 mm 1 mps 595 mmHg 71%
    03:00 0°C° 0 mm 1 mps 595 mmHg 72%
    04:00 -1°C° 0 mm 1 mps 595 mmHg 72%
    05:00 -1°C° 0 mm 1 mps 594 mmHg 74%
    06:00 -1°C° 0 mm 1 mps 594 mmHg 75%
    07:00 -1°C° 0 mm 1 mps 594 mmHg 77%
    08:00 -1°C° 0 mm 0 mps 594 mmHg 77%
    09:00 +1°C° 0 mm 0 mps 594 mmHg 76%
    10:00 +2°C° 0 mm 0 mps 595 mmHg 76%
    11:00 +3°C° 0 mm 0 mps 595 mmHg 75%
    12:00 +3°C° 0 mm 0 mps 594 mmHg 74%
    13:00 +5°C° 0 mm 1 mps 594 mmHg 73%
    14:00 +4°C° 0 mm 1 mps 593 mmHg 76%
    15:00 +4°C° 0 mm 1 mps 593 mmHg 79%
    16:00 +3°C° 0 mm 1 mps 592 mmHg 82%
    17:00 +1°C° 0.1 mm 0 mps 591 mmHg 85%
    18:00 0°C° 0.1 mm 0 mps 591 mmHg 89%
    19:00 -1°C° 0.1 mm 0 mps 590 mmHg 92%
    20:00 -1°C° 0.6 mm 0 mps 590 mmHg 93%
    21:00 0°C° 0.6 mm 1 mps 590 mmHg 94%
    22:00 0°C° 0.6 mm 1 mps 590 mmHg 95%
    23:00 -1°C° 1 mm 1 mps 590 mmHg 95%
    Show more